This is the latest recevied weather packets stored in our database for station/object DM5KA-13. If no packets are shown the sender has not sent any weather packets the latest 10 day(s).
| Time | Temp. | Humidity | Pressure | Rain* | Wind** | Luminosity | Snow |
|---|---|---|---|---|---|---|---|
| 1777887010 | 23.89° C | 37% | 1015.5 hPa | 0 mm | 0 m/s | - | - |
| 1777886710 | 22.78° C | 39% | 1015.6 hPa | 0 mm | 0.45 m/s, 0° | - | - |
| 1777886410 | 22.22° C | 42% | 1015.6 hPa | 0 mm | 0.89 m/s, 0° | - | - |
| 1777886110 | 22.22° C | 41% | 1015.6 hPa | 0 mm | 0.89 m/s, 0° | - | - |
| 1777885810 | 22.78° C | 38% | 1015.7 hPa | 0 mm | 0 m/s | - | - |
| 1777885510 | 22.78° C | 38% | 1015.8 hPa | 0 mm | 0 m/s | - | - |
| 1777885210 | 22.78° C | 37% | 1015.8 hPa | 0 mm | 0 m/s | - | - |
| 1777884910 | 22.22° C | 40% | 1015.7 hPa | 0 mm | 0 m/s | - | - |
| 1777884610 | 21.11° C | 43% | 1015.8 hPa | 0 mm | 0.45 m/s, 0° | - | - |
| 1777884310 | 22.22° C | 42% | 1015.7 hPa | 0 mm | 0 m/s | - | - |
| 1777884022 | 22.22° C | 43% | 1015.6 hPa | 0 mm | 0 m/s | - | - |
| 1777883722 | 21.11° C | 42% | 1015.7 hPa | 0 mm | 0 m/s | - | - |
| 1777883422 | 20° C | 45% | 1015.6 hPa | 0 mm | 0 m/s | - | - |
| 1777883122 | 20° C | 46% | 1015.6 hPa | 0 mm | 0 m/s | - | - |
| 1777882822 | 20° C | 45% | 1015.6 hPa | 0 mm | 0.45 m/s, 0° | - | - |
| 1777882522 | 20° C | 46% | 1015.5 hPa | 0 mm | 0 m/s | - | - |
| 1777882222 | 20° C | 46% | 1015.5 hPa | 0 mm | 0 m/s | - | - |
| 1777881922 | 20° C | 46% | 1015.5 hPa | 0 mm | 0.45 m/s, 0° | - | - |
| 1777881622 | 21.11° C | 44% | 1015.6 hPa | 0 mm | 0 m/s | - | - |
| 1777881322 | 21.11° C | 43% | 1015.6 hPa | 0 mm | 0.45 m/s, 0° | - | - |
| 1777881022 | 22.22° C | 40% | 1015.6 hPa | 0 mm | 0.45 m/s, 0° | - | - |
| 1777880722 | 22.22° C | 41% | 1015.5 hPa | 0 mm | 0 m/s | - | - |
| 1777880422 | 22.22° C | 42% | 1015.5 hPa | 0 mm | 0 m/s | - | - |
| 1777880122 | 22.22° C | 42% | 1015.5 hPa | 0 mm | 0.89 m/s, 0° | - | - |
| 1777879822 | 21.11° C | 43% | 1015.4 hPa | 0 mm | 0.45 m/s, 0° | - | - |
* Rain latest hour (hover to see other rain measurements)
** Current wind speed in m/s (hover to see current wind gust speed)